This is the latest recevied weather packets stored in our database for station/object KI4NG. If no packets are shown the sender has not sent any weather packets the latest 10 day(s).
| Time | Temp. | Humidity | Pressure | Rain* | Wind** | Luminosity | Snow |
|---|---|---|---|---|---|---|---|
| 1777772249 | 7.78° C | 84% | 1017.9 hPa | 0 mm | - | 0 W/m² | - |
| 1777771947 | 7.78° C | 83% | 1018 hPa | 0 mm | - | 0 W/m² | - |
| 1777771644 | 7.78° C | 84% | 1018 hPa | 0 mm | - | 0 W/m² | - |
| 1777771341 | 7.78° C | 83% | 1017.8 hPa | 0 mm | - | 0 W/m² | - |
| 1777771038 | 8.33° C | 84% | 1017.7 hPa | 0 mm | - | 0 W/m² | - |
| 1777770735 | 8.33° C | 83% | 1017.7 hPa | 0 mm | - | 0 W/m² | - |
| 1777770431 | 8.33° C | 83% | 1017.7 hPa | 0 mm | - | 0 W/m² | - |
| 1777770129 | 7.78° C | 82% | 1017.7 hPa | 0 mm | - | 0 W/m² | - |
| 1777769826 | 8.33° C | 82% | 1017.6 hPa | 0 mm | - | 0 W/m² | - |
| 1777769522 | 8.33° C | 82% | 1017.5 hPa | 0 mm | - | 0 W/m² | - |
| 1777769218 | 8.33° C | 82% | 1017.2 hPa | 0 mm | - | 0 W/m² | - |
| 1777768917 | 8.33° C | 82% | 1017.5 hPa | 0 mm | - | 0 W/m² | - |
| 1777768614 | 8.33° C | 81% | 1017.3 hPa | 0 mm | - | 0 W/m² | - |
| 1777768311 | 8.33° C | 80% | 1017 hPa | 0 mm | - | 0 W/m² | - |
| 1777768008 | 8.89° C | 79% | 1017.2 hPa | 0 mm | - | 1 W/m² | - |
| 1777767704 | 8.89° C | 79% | 1017.1 hPa | 0 mm | - | 2 W/m² | - |
| 1777767400 | 8.89° C | 78% | 1017.2 hPa | 0 mm | - | 6 W/m² | - |
| 1777767097 | 8.89° C | 77% | 1017 hPa | 0 mm | - | 10 W/m² | - |
| 1777766795 | 9.44° C | 76% | 1017.2 hPa | 0 mm | - | 11 W/m² | - |
| 1777766492 | 9.44° C | 75% | 1017 hPa | 0 mm | - | 15 W/m² | - |
| 1777766188 | 9.44° C | 75% | 1017 hPa | 0 mm | - | 19 W/m² | - |
| 1777765887 | 10° C | 73% | 1016.9 hPa | 0 mm | - | 22 W/m² | - |
| 1777765582 | 10.56° C | 71% | 1016.7 hPa | 0 mm | - | 27 W/m² | - |
| 1777765280 | 10.56° C | 68% | 1016.7 hPa | 0 mm | - | 34 W/m² | - |
| 1777764976 | 10.56° C | 71% | 1016.8 hPa | 0 mm | - | 48 W/m² | - |
* Rain latest hour (hover to see other rain measurements)
** Current wind speed in m/s (hover to see current wind gust speed)